TimeEDT,TemperatureF,Dew PointF,Humidity,Sea Level PressureIn,VisibilityMPH,Wind Direction,Wind SpeedMPH,Gust SpeedMPH,PrecipitationIn,Events,Conditions,WindDirDegrees,DateUTC
12:53 AM,69.1,68.0,96,30.15,10.0,Calm,Calm,-,N/A,,Clear,0,2013-06-25 04:53:00
1:53 AM,66.9,66.9,100,30.14,10.0,Calm,Calm,-,N/A,,Clear,0,2013-06-25 05:53:00
2:53 AM,68.0,66.9,96,30.13,10.0,Calm,Calm,-,N/A,,Clear,0,2013-06-25 06:53:00
3:53 AM,68.0,66.9,96,30.12,10.0,Calm,Calm,-,N/A,,Clear,0,2013-06-25 07:53:00
4:53 AM,68.0,68.0,100,30.12,10.0,Calm,Calm,-,N/A,,Overcast,0,2013-06-25 08:53:00
5:53 AM,66.9,66.9,100,30.13,10.0,Calm,Calm,-,N/A,,Clear,0,2013-06-25 09:53:00
6:31 AM,66.2,66.2,100,30.16,10.0,Calm,Calm,-,N/A,,Scattered Clouds,0,2013-06-25 10:31:00
6:53 AM,66.0,66.0,100,30.13,10.0,Calm,Calm,-,N/A,,Partly Cloudy,0,2013-06-25 10:53:00
7:53 AM,70.0,69.1,97,30.14,10.0,Calm,Calm,-,N/A,,Partly Cloudy,0,2013-06-25 11:53:00
8:53 AM,73.9,70.0,87,30.15,10.0,Calm,Calm,-,N/A,,Clear,0,2013-06-25 12:53:00
9:53 AM,77.0,70.0,79,30.15,10.0,Calm,Calm,-,N/A,,Partly Cloudy,0,2013-06-25 13:53:00
10:53 AM,80.1,71.1,74,30.15,10.0,Calm,Calm,-,N/A,,Scattered Clouds,0,2013-06-25 14:53:00
11:53 AM,82.0,71.1,69,30.14,10.0,Calm,Calm,-,N/A,,Scattered Clouds,0,2013-06-25 15:53:00
12:53 PM,84.9,71.1,63,30.12,10.0,Calm,Calm,-,N/A,,Scattered Clouds,0,2013-06-25 16:53:00
1:53 PM,84.0,70.0,63,30.11,10.0,Calm,Calm,-,N/A,,Mostly Cloudy,0,2013-06-25 17:53:00
2:53 PM,84.9,69.1,59,30.09,10.0,Calm,Calm,-,N/A,,Scattered Clouds,0,2013-06-25 18:53:00
3:53 PM,86.0,70.0,59,30.07,10.0,SSE,5.8,-,N/A,,Mostly Cloudy,150,2013-06-25 19:53:00
4:53 PM,82.9,72.0,69,30.04,10.0,Calm,Calm,-,N/A,,Scattered Clouds,0,2013-06-25 20:53:00
5:53 PM,80.1,71.1,74,30.04,10.0,Variable,3.5,-,N/A,,Clear,0,2013-06-25 21:53:00
6:53 PM,81.0,71.1,72,30.04,10.0,South,4.6,-,N/A,,Clear,190,2013-06-25 22:53:00
7:53 PM,80.1,72.0,76,30.03,10.0,Calm,Calm,-,N/A,,Clear,0,2013-06-25 23:53:00
8:53 PM,77.0,71.1,82,30.03,10.0,Calm,Calm,-,N/A,,Clear,0,2013-06-26 00:53:00
9:53 PM,75.0,72.0,90,30.04,10.0,Calm,Calm,-,N/A,,Clear,0,2013-06-26 01:53:00
10:53 PM,73.0,71.1,93,30.05,10.0,Calm,Calm,-,N/A,,Clear,0,2013-06-26 02:53:00
11:53 PM,73.0,71.1,93,30.04,10.0,Calm,Calm,-,N/A,,Clear,0,2013-06-26 03:53:00